MDT,Max TemperatureF,Mean TemperatureF,Min TemperatureF,Max Dew PointF,MeanDew PointF,Min DewpointF,Max Humidity, Mean Humidity, Min Humidity, Max Sea Level PressureIn, Mean Sea Level PressureIn, Min Sea Level PressureIn, Max VisibilityMiles, Mean VisibilityMiles, Min VisibilityMiles, Max Wind SpeedMPH, Mean Wind SpeedMPH, Max Gust SpeedMPH,PrecipitationIn, CloudCover, Events, WindDirDegrees
2012-6-1,88,66,43,34,28,22,53,31,9,30.14,29.83,29.74,10,10,2,24,8,32,0.00,0,,312
2012-6-2,87,66,44,34,27,20,53,31,9,29.82,29.78,29.73,10,10,10,31,6,44,T,0,Rain,20
2012-6-3,86,65,44,32,28,16,58,33,8,30.12,29.88,29.83,10,10,10,21,5,29,0.00,0,,24
2012-6-4,84,67,50,40,34,25,54,33,12,29.96,29.89,29.83,10,10,10,25,6,31,T,1,,71
2012-6-5,84,65,46,40,26,9,71,39,6,29.93,29.81,29.67,10,10,10,21,8,31,0.00,0,,244
2012-6-6,84,63,41,29,22,10,49,28,6,29.86,29.78,29.70,10,10,10,18,5,25,0.00,0,,36
2012-6-7,83,60,37,26,18,7,43,24,5,29.90,29.86,29.80,10,10,10,18,7,25,0.00,0,,300
2012-6-8,86,63,40,28,19,11,53,30,6,29.92,29.83,29.70,10,10,9,23,7,29,0.00,0,,288
2012-6-9,85,63,40,25,18,12,43,25,7,29.97,29.72,29.58,10,10,10,26,9,33,0.00,0,,241
2012-6-10,78,62,45,28,18,10,39,24,8,29.92,29.77,29.62,10,10,10,28,11,35,0.00,0,,281
2012-6-11,83,59,35,19,13,2,47,26,5,30.04,29.99,29.93,10,10,10,22,6,28,0.00,0,,300
2012-6-12,86,64,41,23,16,8,34,20,6,30.06,29.95,29.85,10,10,10,21,6,26,0.00,0,,312
2012-6-13,88,64,40,23,11,-5,40,22,3,29.89,29.80,29.67,10,10,10,22,5,26,0.00,0,,286
2012-6-14,87,63,39,23,13,-5,40,22,3,29.84,29.78,29.73,10,10,10,20,6,25,0.00,0,,335
2012-6-15,87,64,40,24,16,8,39,23,6,30.04,29.82,29.75,10,10,10,24,6,33,0.00,0,,296
2012-6-16,87,66,45,29,24,14,46,26,6,29.98,29.91,29.84,10,10,9,17,5,24,0.00,0,,355
2012-6-17,89,68,46,38,23,9,50,28,5,30.01,29.90,29.74,10,10,10,26,10,39,0.00,0,,314
2012-6-18,88,66,44,24,17,6,39,22,5,29.83,29.75,29.65,10,10,10,25,8,35,0.00,0,,300
2012-6-19,89,65,41,25,17,9,45,25,5,29.89,29.70,29.62,10,10,10,21,7,28,0.00,0,,297
2012-6-20,91,67,42,26,16,7,40,23,5,29.83,29.76,29.68,10,10,10,26,9,37,0.00,0,,276
2012-6-21,93,68,43,34,22,12,34,20,6,29.99,29.90,29.80,10,10,6,20,6,25,0.00,0,,329
2012-6-22,94,73,52,44,30,17,55,31,6,30.02,29.81,29.67,10,10,10,25,8,31,0.00,0,,258
2012-6-23,94,71,47,38,27,20,49,29,8,29.87,29.81,29.76,10,10,8,30,8,38,0.00,0,,55
2012-6-24,93,73,52,38,32,20,54,31,7,30.15,29.90,29.81,10,10,8,23,5,31,0.00,0,,51
2012-6-25,93,75,56,37,28,18,35,21,7,29.99,29.87,29.77,10,10,10,22,7,29,0.00,0,,263
2012-6-26,92,74,55,49,38,32,51,32,13,30.15,29.86,29.74,10,10,8,33,7,49,T,2,Rain-Thunderstorm,292
2012-6-27,89,74,58,53,45,33,64,40,16,30.26,29.98,29.86,10,10,8,30,6,39,0.03,3,Rain-Thunderstorm,208
2012-6-28,92,73,54,51,43,36,72,43,14,30.10,30.01,29.94,10,10,10,26,6,32,0.00,0,,280
2012-6-29,93,74,55,43,35,26,57,34,10,30.04,29.93,29.83,10,10,10,21,5,29,0.00,0,,282
2012-6-30,94,74,53,36,29,17,40,24,7,29.91,29.83,29.74,10,10,10,20,6,24,0.00,0,,312